East Wenatchee, WA

7:48 AM PST on December 08, 2016 (GMT -0800)
Pangborn Memorial

Weather History for KEAT - November, 2010

Change the Weather History Date:

Saturday, November 27, 2010

  Actual Average Record
Temperature  
Mean Temperature 28 °F 30 °F  
Max Temperature 31 °F 36 °F 57 °F (2014)
Min Temperature 25 °F 24 °F 0 °F (1985)
Degree Days  
Heating Degree Days 37 35  
Month to date heating degree days 871 818  
Since 1 July heating degree days 1811 1774  
Cooling Degree Days 0 0  
Month to date cooling degree days 0 0  
Year to date cooling degree days 183 249  
Moisture  
Dew Point 21 °F    
Average Humidity 88    
Maximum Humidity 96    
Minimum Humidity 81    
Precipitation  
Precipitation 0.43 in 0.08 in 0.87 in (1984)
Month to date precipitation 2.75 1.95  
Year to date precipitation 17.03 14.29  
Snow  
Snow 6.20 in 0.40 in - ()
Month to date snowfall 21.0 6.4  
Since 1 July snowfall 21.0 6.5  
Since 1 September snowfall 21.0 6.5  
Snow Depth 10.00 in    
Sea Level Pressure  
Sea Level Pressure 29.81 in    
Wind  
Wind Speed 6 mph (WNW)    
Max Wind Speed 9 mph    
Max Gust Speed -    
Visibility 6 miles    
Events Snow    
T = Trace of Precipitation, MM = Missing Value Source: NWS Daily Summary

Daily Weather History Graph

Daily Weather History Graph

Search for Another Location

Airport or City:

Trip Planner

Search our weather history database for the weather conditions in past years. The results will help you decide how hot, cold, wet, or windy it might be!

Date:

Astronomy

Nov. 27, 2010 Rise Set
Actual Time 7:22 AM PST 4:14 PM PST
Civil Twilight 6:47 AM PST 4:48 PM PST
Nautical Twilight 6:09 AM PST 5:27 PM PST
Astronomical Twilight 5:32 AM PST 6:03 PM PST
Moon 10:55 PM PST (11/27) 11:51 AM PST (11/27)
Length of Visible Light 10h 01m
Length of Day
8h 51m
Waning Gibbous, 62% of the Moon is Illuminated
Nov 27
Waning Gibbous
Nov 28
Last Quarter
Dec 5
New
Dec 13
First Quarter
Dec 21
Full

Hourly Weather History & Observations

Time (PST) Temp. Windchill Dew Point Humidity Pressure Visibility Wind Dir Wind Speed Gust Speed Precip Events Conditions
12:55 AM 24.1 °F 14.4 °F 19.0 °F 81% 29.92 in 10.0 mi NW 9.2 mph - N/A   Overcast
1:55 AM 24.1 °F 18.2 °F 19.9 °F 84% 29.91 in 10.0 mi West 4.6 mph - N/A   Overcast
2:55 AM 24.1 °F 14.4 °F 19.9 °F 84% 29.87 in 10.0 mi WNW 9.2 mph - N/A   Overcast
3:55 AM 24.1 °F 16.0 °F 19.9 °F 84% 29.86 in 10.0 mi NW 6.9 mph - N/A   Overcast
4:55 AM 25.0 °F 17.1 °F 21.0 °F 85% 29.84 in 7.0 mi WNW 6.9 mph - 0.00 in Snow Light Snow
5:47 AM 24.8 °F 15.3 °F 21.2 °F 86% 29.78 in 2.0 mi NW 9.2 mph - 0.00 in Snow Light Snow
5:55 AM 24.1 °F 15.2 °F 21.9 °F 91% 29.83 in 1.8 mi WNW 8.1 mph - 0.00 in Snow Light Snow
6:12 AM 24.8 °F 15.3 °F 21.2 °F 86% 29.78 in 1.5 mi WNW 9.2 mph - 0.00 in Snow Light Snow
6:26 AM 24.8 °F 15.3 °F 21.2 °F 86% 29.78 in 0.8 mi WNW 9.2 mph - 0.00 in Snow Light Snow
6:40 AM 23.0 °F 14.7 °F 21.2 °F 93% 29.79 in 1.0 mi WNW 6.9 mph - 0.00 in Snow Light Snow
6:55 AM 24.1 °F 17.0 °F 21.9 °F 91% 29.83 in 1.0 mi NW 5.8 mph - 0.00 in Snow Light Snow
7:32 AM 24.8 °F 16.1 °F 21.2 °F 86% 29.78 in 2.0 mi West 8.1 mph - 0.01 in Snow Light Snow
7:40 AM 23.0 °F 15.8 °F 21.2 °F 93% 29.77 in 2.5 mi NW 5.8 mph - 0.01 in Snow Light Snow
7:47 AM 23.0 °F 15.8 °F 21.2 °F 93% 29.77 in 4.0 mi NW 5.8 mph - 0.01 in Snow Light Snow
7:55 AM 24.1 °F 16.0 °F 21.9 °F 91% 29.82 in 4.0 mi NW 6.9 mph - 0.01 in Snow Light Snow
8:51 AM 24.8 °F 19.1 °F 23.0 °F 93% 29.78 in 1.8 mi SW 4.6 mph - 0.00 in Snow Light Snow
8:55 AM 24.1 °F 18.2 °F 23.0 °F 96% 29.83 in 1.2 mi WSW 4.6 mph - 0.00 in Snow Light Snow
9:15 AM 24.8 °F 16.1 °F 21.2 °F 86% 29.78 in 1.5 mi NW 8.1 mph - 0.00 in Snow Light Snow
9:44 AM 24.8 °F 17.9 °F 21.2 °F 86% 29.78 in 2.0 mi West 5.8 mph - 0.00 in Snow Light Snow
9:53 AM 24.8 °F 16.9 °F 21.2 °F 86% 29.78 in 6.0 mi West 6.9 mph - 0.00 in Snow Light Snow
9:55 AM 24.1 °F 15.2 °F 21.9 °F 91% 29.83 in 7.0 mi West 8.1 mph - 0.00 in Snow Light Snow
10:07 AM 24.8 °F 16.1 °F 21.2 °F 86% 29.77 in 9.0 mi West 8.1 mph - 0.00 in   Scattered Clouds
10:55 AM 26.1 °F 17.6 °F 21.9 °F 84% 29.81 in 10.0 mi NW 8.1 mph - 0.00 in   Clear
12:55 PM 28.0 °F - 24.1 °F 85% 29.78 in 10.0 mi Calm Calm - N/A   Mostly Cloudy
1:55 PM 28.0 °F 24.2 °F 23.0 °F 81% 29.77 in 10.0 mi WNW 3.5 mph - N/A   Clear
2:55 PM 28.0 °F - 23.0 °F 81% 29.77 in 10.0 mi Calm Calm - N/A   Clear
3:55 PM 27.0 °F - 21.9 °F 81% 29.78 in 10.0 mi Calm Calm - N/A   Clear
4:55 PM 24.1 °F - 21.0 °F 88% 29.80 in 10.0 mi Calm Calm - N/A   Clear
5:55 PM 21.9 °F - 19.9 °F 92% 29.81 in 10.0 mi Calm Calm - N/A   Scattered Clouds
6:55 PM 26.1 °F - 23.0 °F 88% 29.82 in 10.0 mi Calm Calm - N/A   Mostly Cloudy
7:55 PM 26.1 °F - 23.0 °F 88% 29.82 in 10.0 mi Calm Calm - N/A   Mostly Cloudy
8:55 PM 24.1 °F 19.7 °F 21.0 °F 88% 29.83 in 10.0 mi WSW 3.5 mph - N/A   Clear
9:55 PM 23.0 °F - 21.9 °F 96% 29.84 in 10.0 mi Calm Calm - N/A   Clear
10:55 PM 21.9 °F - 19.9 °F 92% 29.85 in 10.0 mi Calm Calm - N/A   Clear
11:55 PM 24.1 °F 19.7 °F 21.0 °F 88% 29.86 in 10.0 mi North 3.5 mph - N/A   Clear